カタログに戻る

ARIANE 44LP DEB

運用中GTO
NORAD 27660·DEBRIS·🇫🇷 France

打ち上げ Aug 8, 1989 から Guiana Space Centre

Loading…

TLE

経年Source: Space-Track

元期: Sep 14, 2026, 15:21 UTC

1 27660U 89062Q   26257.64013197  .00001391  00000-0  11883-1 0  9995
2 27660   7.4193   7.4495 7053358 233.5137  39.3467  2.41561287121520

AllMySatでARIANE 44LP DEBをリアルタイム追跡

Download on the App Store